Miscellaneous Local Product
Issued by NWS Hastings, NE

Home | Current Version | Previous Version | Graphics & Text | Print | Product List | Glossary On
Versions: 1 2 3 4 5 6 7 8 9 10 11 12 13 14 15 16 17 18 19 20 21 22 23 24 25 26 27 28 29 30 31 32 33 34 35 36 37 38 39 40 41 42 43 44 45 46 47 48 49 50
000
AXUS43 KGID 260802
MISGRI

GID CWA HOURLY WEATHER ROUNDUP
NATIONAL WEATHER SERVICE HASTINGS NE
300 AM CDT SAT MAY 26 2018

NOTE: "FAIR" INDICATES FEW OR NO CLOUDS BELOW 12,000 FEET WITH NO
SIGNIFICANT WEATHER AND/OR OBSTRUCTIONS TO VISIBILITY.

...SOUTH CENTRAL NEBRASKA...

CITY           SKY/WX    TMP DP  RH WIND       PRES   REMARKS
GRAND ISLAND   CLEAR     68  61  78 CALM      29.81S
KEARNEY        CLEAR     68  59  73 NW5       29.83S
HASTINGS       CLEAR     71  62  73 SW3       29.82S
ORD            CLEAR     62  59  90 S3        29.81S
YORK           CLEAR     68  64  88 CALM      29.80S
AURORA         CLEAR     67  62  82 W6        29.80S
LEXINGTON      CLEAR     62  57  83 CALM      29.85S
HOLDREGE       CLEAR     72  59  64 W10       29.84S
HEBRON         PTCLDY    72  65  81 SW3       29.80S

...NEBRASKA PANHANDLE...

CITY           SKY/WX    TMP DP  RH WIND       PRES   REMARKS
CHADRON        CLEAR     56  55  97 CALM      29.88S
ALLIANCE       CLEAR     54  52  93 CALM      29.91F
SCOTTSBLUFF    CLEAR     59  55  87 E6        29.91F
SIDNEY         CLEAR     55  49  80 S5        29.94F

...WESTERN AND NORTH CENTRAL NEBRASKA...

CITY           SKY/WX    TMP DP  RH WIND       PRES   REMARKS
VALENTINE      CLEAR     61  59  93 W3        29.86S
AINSWORTH      CLEAR     64  62  96 CALM      29.86F
ONEILL         CLEAR     67  65  91 CALM      29.83S
BROKEN BOW     CLEAR     63  58  83 N5        29.85S
IMPERIAL       CLEAR     64  54  69 CALM      29.88F
NORTH PLATTE   CLEAR     57  55  93 N3        29.86F
MCCOOK         CLEAR     64  56  75 SW6       29.85F

...EASTERN NEBRASKA...

CITY           SKY/WX    TMP DP  RH WIND       PRES   REMARKS
NORFOLK        CLEAR     65  58  78 CALM      29.78S
SO SIOUX CITY  CLEAR     69  57  65 CALM      29.75S
TEKAMAH        CLEAR     66  61  84 SW5       29.74S
COLUMBUS       CLEAR     67  62  84 CALM      29.79S
ALBION         CLEAR     62  61  94 CALM      29.81S
OMAHA EPPLEY   CLEAR     68  63  84 N7        29.74S
OFFUTT AFB     CLEAR     67  62  83 CALM      29.73S
MILLARD        CLEAR     69  65  86 CALM      29.75S
LINCOLN        CLEAR     70  60  70 S7        29.77F
NEBRASKA CITY  CLEAR     73  63  70 SW10      29.76F
BEATRICE       PTCLDY    74  66  75 CALM      29.78S
FALLS CITY     PTCLDY    73  65  75 SW5       29.76S

...NORTHERN KANSAS...

CITY           SKY/WX    TMP DP  RH WIND       PRES   REMARKS
GOODLAND       CLEAR     65  53  65 S12       29.91F
HILL CITY      CLEAR     72  62  71 SW8       29.85S
NORTON         SUNNY     66  61  82 SW7       29.84S
PHILLIPSBURG   CLEAR     73  61  64 W3        29.82F
SMITH CENTER   CLEAR     68  61  77 CALM      29.83S
HAYS           CLEAR     68  65  90 SW9       29.85S
RUSSELL        CLEAR     68  67  96 SW12      29.82F
CONCORDIA      CLEAR     71  66  84 SW8       29.80S
SALINA         CLEAR     72  67  84 S8        29.81S
TOPEKA         CLEAR     73  68  84 S3        29.79F



USA.gov is the U.S. government's official web portal to all federal, state and local government web resources and services.